Weather History for HESH - April, 2013

Change the Weather History Date:

Saturday, April 6, 2013

  Actual Average Record
Temperature  
Mean Temperature 76 °F -  
Max Temperature 87 °F - - ()
Min Temperature 64 °F - - ()
Cooling Degree Days 10    
Growing Degree Days 26 (Base 50)    
Moisture  
Dew Point 42 °F    
Average Humidity 33    
Maximum Humidity 49    
Minimum Humidity 15    
Precipitation  
Precipitation 0.00 in - - ()
Sea Level Pressure  
Sea Level Pressure 29.93 in    
Wind  
Wind Speed 9 mph ()    
Max Wind Speed 20 mph    
Max Gust Speed -    
T = Trace of Precipitation, MM = Missing Value Source: Averaged Metar Reports

Daily Weather History Graph

Daily Weather History Graph

Search for Another Location

Airport or City:

Trip Planner

Search our weather history database for the weather conditions in past years. The results will help you decide how hot, cold, wet, or windy it might be!

Date:

Astronomy

Apr. 06, 2013 Rise Set
Actual Time 5:27 AM EET 6:02 PM EET
Civil Twilight 5:03 AM EET 6:26 PM EET
Nautical Twilight 4:35 AM EET 6:54 PM EET
Astronomical Twilight 4:07 AM EET 7:22 PM EET
Moon 2:38 AM EET 2:27 PM EET
Length of Visible Light 13h 23m
Length of Day
12h 35m
Waning Crescent, 17% of the Moon is Illuminated
Apr 6
Waning Crescent
Apr 10
New
Apr 18
First Quarter
Apr 25
Full
May 2
Last Quarter

Hourly Weather History & Observations

Time (EET) Temp. Dew Point Humidity Pressure Visibility Wind Dir Wind Speed Gust Speed Precip Events Conditions
12:00 AM 69.8 °F 42.8 °F 38% 29.95 in - NNE 19.6 mph - N/A   Clear
1:00 AM 68.0 °F 44.6 °F 43% 29.95 in - NNE 16.1 mph - N/A   Clear
2:00 AM 66.2 °F 42.8 °F 43% 29.95 in - North 11.5 mph - N/A   Clear
3:00 AM 66.2 °F 42.8 °F 43% 29.92 in - North 9.2 mph - N/A   Clear
4:00 AM 64.4 °F 41.0 °F 42% 29.95 in - NNE 6.9 mph - N/A   Clear
5:00 AM 64.4 °F 41.0 °F 42% 29.95 in - North 10.4 mph - N/A   Clear
6:00 AM 66.2 °F 41.0 °F 40% 29.98 in - North 15.0 mph - N/A   Clear
7:00 AM 71.6 °F 37.4 °F 29% 29.98 in - North 10.4 mph - N/A   Clear
8:00 AM 73.4 °F 35.6 °F 25% 29.98 in - NNE 15.0 mph - N/A   Clear
9:00 AM 73.4 °F 48.2 °F 41% 29.98 in - NNE 17.3 mph - N/A   Clear
10:00 AM 77.0 °F 46.4 °F 34% 29.98 in - NNE 12.7 mph - N/A   Clear
11:00 AM 78.8 °F 44.6 °F 30% 29.92 in - NNE 11.5 mph - N/A   Clear
12:00 PM 80.6 °F 42.8 °F 26% 29.95 in - NNE 12.7 mph - N/A   Clear
1:00 PM 86.0 °F 42.8 °F 22% 29.92 in - NE 8.1 mph - N/A   Clear
2:00 PM 87.8 °F 35.6 °F 16% 29.89 in - NE 3.5 mph - N/A   Clear
3:00 PM 87.8 °F 33.8 °F 15% 29.89 in - South 4.6 mph - N/A   Clear
4:00 PM 87.8 °F 46.4 °F 24% 29.89 in - SSE 4.6 mph - N/A   Clear
5:00 PM 82.4 °F 46.4 °F 28% 29.86 in - East 3.5 mph - N/A   Clear
6:00 PM 78.8 °F 39.2 °F 24% 29.86 in - NNE 3.5 mph - N/A   Clear
7:00 PM 73.4 °F 48.2 °F 41% 29.89 in - Variable 2.3 mph - N/A   Clear
8:00 PM 73.4 °F 44.6 °F 36% 29.89 in - WSW 3.5 mph - N/A   Clear
9:00 PM 73.4 °F 41.0 °F 31% 29.89 in - Calm Calm - N/A   Clear
10:00 PM 69.8 °F 41.0 °F 35% 29.92 in - Calm Calm - N/A   Clear
11:00 PM 69.8 °F 50.0 °F 49% 29.92 in - North 2.3 mph - N/A   Clear